GW5679 Weather Reports


Display with metric or nautical units.
time (UTC)temp
F
wind
direction
speed
MPH
gust
MPH
rain 1hr
in
rain 24hr
in
rain mn
in
humidity
%
barometer
mb
20260905215932 89 210 4.0 7.0 0.00 0.00 0.00 67 1010.1
20260905215428 89 170 2.0 3.0 0.00 0.00 0.00 65 1010.1
20260905214924 89 215 2.0 3.0 0.00 0.00 0.00 65 1010.4
20260905214420 89 291 6.0 10.0 0.00 0.00 0.00 65 1010.2
20260905213919 89 290 9.0 10.0 0.00 0.00 0.00 65 1010.3
20260905213416 89 252 4.0 9.0 0.00 0.00 0.00 65 1010.4
20260905212911 91 263 6.0 9.0 0.00 0.00 0.00 64 1010.3
20260905212406 92 207 5.0 7.0 0.00 0.00 0.00 61 1010.3
20260905211905 93 166 1.0 4.0 0.00 0.00 0.00 58 1010.5
20260905211401 95 186 3.0 6.0 0.00 0.00 0.00 54 1010.5
20260905210857 95 148 0.0 0.0 0.00 0.00 0.00 53 1010.5
20260905210357 95 104 1.0 8.0 0.00 0.00 0.00 53 1010.6
20260905205856 95 110 2.0 6.0 0.00 0.00 0.00 53 1010.3
20260905205351 95 165 3.0 6.0 0.00 0.00 0.00 53 1010.3
20260905204850 96 137 3.0 10.0 0.00 0.00 0.00 52 1010.5
20260905204346 97 117 2.0 6.0 0.00 0.00 0.00 51 1010.2
20260905203844 96 96 4.0 6.0 0.00 0.00 0.00 52 1010.6
20260905203340 96 193 5.0 9.0 0.00 0.00 0.00 53 1010.5
20260905202831 97 151 3.0 6.0 0.00 0.00 0.00 51 1010.4
20260905202331 96 175 1.0 6.0 0.00 0.00 0.00 53 1010.7
20260905201827 96 135 4.0 4.0 0.00 0.00 0.00 52 1010.5
20260905201323 96 181 2.0 6.0 0.00 0.00 0.00 52 1010.6
20260905200822 98 157 2.0 4.0 0.00 0.00 0.00 50 1010.7
20260905200318 97 185 0.0 2.0 0.00 0.00 0.00 51 1010.7
20260905195816 95 148 1.0 2.0 0.00 0.00 0.00 54 1011.0
20260905195311 94 115 3.0 4.0 0.00 0.00 0.00 56 1011.1
20260905194807 92 114 1.0 2.0 0.00 0.00 0.00 59 1011.1
20260905194307 92 150 3.0 3.0 0.00 0.00 0.00 59 1011.2
20260905193806 92 129 4.0 6.0 0.00 0.00 0.00 59 1011.2
20260905193301 91 122 2.0 4.0 0.00 0.00 0.00 60 1011.3
20260905192756 92 142 3.0 6.0 0.00 0.00 0.00 60 1011.4
20260905192252 91 161 2.0 7.0 0.00 0.00 0.00 60 1011.4
20260905191751 91 137 4.0 4.0 0.00 0.00 0.00 60 1011.4
20260905191250 92 151 3.0 4.0 0.00 0.00 0.00 59 1011.8
20260905190749 92 102 3.0 7.0 0.00 0.00 0.00 59 1011.6
20260905190248 93 128 3.0 6.0 0.00 0.00 0.00 58 1011.7
20260905185747 92 107 2.0 4.0 0.00 0.00 0.00 59 1011.8
20260905185242 91 199 3.0 6.0 0.00 0.00 0.00 60 1011.8
20260905184736 91 162 2.0 3.0 0.00 0.00 0.00 61 1011.7
20260905184236 91 113 4.0 6.0 0.00 0.00 0.00 60 1011.8
20260905183735 90 201 4.0 6.0 0.00 0.00 0.00 61 1012.0
20260905183231 89 115 6.0 7.0 0.00 0.00 0.00 61 1011.8
20260905182730 90 163 4.0 8.0 0.00 0.00 0.00 62 1012.0
20260905182230 90 125 4.0 6.0 0.00 0.00 0.00 63 1012.1
20260905181725 90 188 2.0 6.0 0.00 0.00 0.00 64 1012.1
20260905181224 90 137 4.0 7.0 0.00 0.00 0.00 64 1012.2
20260905180719 94 132 7.0 8.0 0.00 0.00 0.00 58 1012.4
20260905180215 98 207 3.0 4.0 0.00 0.00 0.00 49 1012.3
20260905175714 97 188 3.0 4.0 0.00 0.00 0.00 48 1012.3
20260905175209 95 119 2.0 4.0 0.00 0.00 0.00 52 1012.2
20260905174704 96 32 5.0 6.0 0.00 0.00 0.00 52 1012.6
20260905174200 94 174 0.0 3.0 0.00 0.00 0.00 54 1012.8
20260905173656 92 190 0.0 2.0 0.00 0.00 0.00 57 1012.7
20260905173152 93 166 1.0 2.0 0.00 0.00 0.00 56 1012.7
20260905172651 95 241 2.0 4.0 0.00 0.00 0.00 55 1013.0
20260905172145 95 206 4.0 6.0 0.00 0.00 0.00 54 1012.9
20260905171641 96 165 3.0 3.0 0.00 0.00 0.00 53 1012.9
20260905171137 94 214 2.0 3.0 0.00 0.00 0.00 54 1012.9
20260905170634 95 308 4.0 7.0 0.00 0.00 0.00 54 1013.1
20260905170129 95 141 1.0 2.0 0.00 0.00 0.00 52 1012.9
20260905165629 92 161 0.0 0.0 0.00 0.00 0.00 56 1012.9
20260905165124 91 229 3.0 7.0 0.00 0.00 0.00 58 1013.1
20260905164619 91 176 2.0 3.0 0.00 0.00 0.00 59 1013.1
20260905164118 92 342 2.0 8.0 0.00 0.00 0.00 58 1013.2
20260905163615 94 111 3.0 6.0 0.00 0.00 0.00 56 1013.1
20260905163111 95 155 0.0 0.0 0.00 0.00 0.00 51 1013.2
20260905162607 95 183 2.0 3.0 0.00 0.00 0.00 49 1013.2
20260905162106 95 188 2.0 2.0 0.00 0.00 0.00 51 1013.4
20260905161606 93 185 2.0 3.0 0.00 0.00 0.00 53 1013.2
20260905161104 91 168 2.0 3.0 0.00 0.00 0.00 57 1013.1
20260905160603 89 243 2.0 3.0 0.00 0.00 0.00 60 1013.1
20260905155557 89 337 2.0 3.0 0.00 0.00 0.00 62 1013.2
20260905155056 89 126 2.0 3.0 0.00 0.00 0.00 62 1012.9
20260905154551 89 236 2.0 4.0 0.00 0.00 0.00 61 1013.0
20260905154046 89 114 1.0 3.0 0.00 0.00 0.00 63 1013.3
20260905153542 90 263 4.0 4.0 0.00 0.00 0.00 63 1013.3
20260905153042 91 167 1.0 3.0 0.00 0.00 0.00 63 1013.3
20260905152537 92 206 2.0 3.0 0.00 0.00 0.00 64 1013.2
20260905152032 93 171 2.0 3.0 0.00 0.00 0.00 64 1013.2
20260905151527 92 135 2.0 2.0 0.00 0.00 0.00 65 1013.4
20260905151022 91 183 2.0 3.0 0.00 0.00 0.00 65 1013.1
20260905150518 90 182 2.0 2.0 0.00 0.00 0.00 68 1013.3
20260905150015 90 154 1.0 2.0 0.00 0.00 0.00 69 1013.3
20260905145509 89 196 3.0 3.0 0.00 0.00 0.00 70 1013.2
20260905145008 89 148 0.0 1.0 0.00 0.00 0.00 71 1013.3
20260905144504 89 266 2.0 3.0 0.00 0.00 0.00 72 1013.4
20260905144003 89 276 4.0 6.0 0.00 0.00 0.00 71 1013.1
20260905143501 89 186 2.0 3.0 0.00 0.00 0.00 73 1013.3
20260905142956 88 217 2.0 3.0 0.00 0.00 0.00 75 1013.2
20260905142455 88 192 2.0 3.0 0.00 0.00 0.00 75 1013.1
20260905141951 88 257 2.0 3.0 0.00 0.00 0.00 75 1013.2
20260905141445 89 160 0.0 2.0 0.00 0.00 0.00 74 1013.2
20260905140942 88 180 1.0 1.0 0.00 0.00 0.00 76 1013.2
20260905140437 87 132 0.0 1.0 0.00 0.00 0.00 79 1013.1
20260905135935 86 180 1.0 2.0 0.00 0.00 0.00 80 1013.1
20260905135431 85 177 1.0 1.0 0.00 0.00 0.00 81 1013.2
20260905134927 85 103 2.0 2.0 0.00 0.00 0.00 81 1013.1
20260905134426 85 189 2.0 2.0 0.00 0.00 0.00 82 1012.8
20260905133920 84 132 0.0 1.0 0.00 0.00 0.00 83 1012.9
20260905133420 84 206 1.0 2.0 0.00 0.00 0.00 83 1013.0
20260905132920 84 85 1.0 2.0 0.00 0.00 0.00 84 1012.9
20260905132415 83 78 3.0 4.0 0.00 0.00 0.00 84 1012.9
20260905131910 83 56 1.0 2.0 0.00 0.00 0.00 85 1013.1
20260905131406 83 67 3.0 3.0 0.00 0.00 0.00 85 1013.0
20260905130900 83 94 2.0 3.0 0.00 0.00 0.00 86 1013.0
20260905130359 82 83 1.0 2.0 0.00 0.00 0.00 86 1013.0
20260905125855 82 93 2.0 2.0 0.00 0.00 0.00 87 1012.8
20260905125349 82 110 1.0 2.0 0.00 0.00 0.00 88 1012.8
20260905124845 82 72 2.0 3.0 0.00 0.00 0.00 88 1012.9
20260905124342 81 65 2.0 2.0 0.00 0.00 0.00 89 1012.7
20260905123841 80 178 2.0 2.0 0.00 0.00 0.00 89 1012.4
20260905123339 80 95 2.0 2.0 0.00 0.00 0.00 90 1012.7
20260905122838 80 114 2.0 2.0 0.00 0.00 0.00 90 1012.4
20260905122337 80 77 2.0 2.0 0.00 0.00 0.00 90 1012.4
20260905121833 80 353 2.0 3.0 0.00 0.00 0.00 89 1012.4
20260905121330 80 102 1.0 2.0 0.00 0.00 0.00 89 1012.4
20260905120828 80 221 2.0 2.0 0.00 0.00 0.00 89 1012.4
20260905120323 80 105 2.0 2.0 0.00 0.00 0.00 89 1012.2
20260905115818 81 196 0.0 0.0 0.00 0.00 0.00 88 1012.1
20260905115317 81 87 2.0 2.0 0.00 0.00 0.00 89 1012.1
20260905114817 80 122 2.0 2.0 0.00 0.00 0.00 89 1011.9
20260905114316 81 118 0.0 1.0 0.00 0.00 0.00 88 1012.0
20260905113815 81 159 0.0 0.0 0.00 0.00 0.00 88 1011.7
20260905113312 81 139 0.0 1.0 0.00 0.00 0.00 88 1011.8
20260905112807 81 71 2.0 3.0 0.00 0.00 0.00 88 1011.7
20260905112305 81 111 2.0 2.0 0.00 0.00 0.00 89 1011.7
20260905111756 81 138 1.0 1.0 0.00 0.00 0.00 89 1011.7
20260905111250 80 122 1.0 1.0 0.00 0.00 0.00 89 1011.6
20260905110750 80 122 1.0 1.0 0.00 0.00 0.00 89 1011.6
20260905110244 80 146 0.0 0.0 0.00 0.00 0.00 89 1011.5
20260905105740 80 130 0.0 0.0 0.00 0.00 0.00 89 1011.5
20260905105239 80 118 0.0 0.0 0.00 0.00 0.00 89 1011.4
20260905104733 80 119 0.0 0.0 0.00 0.00 0.00 89 1011.3
20260905104230 80 137 0.0 0.0 0.00 0.00 0.00 89 1011.4
20260905103724 80 178 1.0 1.0 0.00 0.00 0.00 89 1011.5
20260905103220 80 165 0.0 1.0 0.00 0.00 0.00 89 1011.4
20260905102715 80 174 0.0 0.0 0.00 0.00 0.00 88 1011.4
20260905102212 80 171 0.0 0.0 0.00 0.00 0.00 88 1011.5
20260905101711 80 172 1.0 2.0 0.00 0.00 0.00 88 1011.5
20260905101209 81 335 2.0 2.0 0.00 0.00 0.00 88 1011.6
20260905100705 81 320 2.0 3.0 0.00 0.00 0.00 88 1011.5
20260905100200 81 139 1.0 2.0 0.00 0.00 0.00 88 1011.7
20260905095700 81 106 2.0 2.0 0.00 0.00 0.00 87 1011.5
20260905095154 81 190 0.0 0.0 0.00 0.00 0.00 87 1011.7
20260905094650 81 176 1.0 1.0 0.00 0.00 0.00 87 1011.5
20260905094149 81 265 1.0 2.0 0.00 0.00 0.00 87 1011.6
20260905093644 81 114 2.0 2.0 0.00 0.00 0.00 87 1011.5
20260905093140 81 106 0.0 2.0 0.00 0.00 0.00 87 1011.4
20260905092640 81 162 0.0 0.0 0.00 0.00 0.00 86 1011.6
20260905092136 81 180 0.0 0.0 0.00 0.00 0.00 86 1011.3
20260905091635 81 177 0.0 0.0 0.00 0.00 0.00 86 1011.4
20260905091135 81 174 0.0 0.0 0.00 0.00 0.00 86 1011.6
20260905090630 82 179 0.0 1.0 0.00 0.00 0.00 85 1011.5
20260905090125 82 198 2.0 2.0 0.00 0.00 0.00 85 1011.4
20260905085624 82 198 2.0 2.0 0.00 0.00 0.00 85 1011.2
20260905085120 82 191 2.0 2.0 0.00 0.00 0.00 85 1011.3
20260905084619 82 219 1.0 2.0 0.00 0.00 0.00 85 1011.3
20260905084115 82 208 2.0 2.0 0.00 0.00 0.00 85 1011.2
20260905083614 82 188 1.0 2.0 0.00 0.00 0.00 85 1011.4
20260905083111 82 199 1.0 2.0 0.00 0.00 0.00 85 1011.3
20260905082606 82 175 0.0 1.0 0.00 0.00 0.00 85 1011.3
20260905082102 82 196 1.0 1.0 0.00 0.00 0.00 85 1011.4
20260905081601 82 169 2.0 2.0 0.00 0.00 0.00 85 1011.3
20260905081056 82 197 3.0 3.0 0.00 0.00 0.00 85 1011.3
20260905080556 82 183 0.0 2.0 0.00 0.00 0.00 85 1011.3
20260905080052 82 191 2.0 3.0 0.00 0.00 0.00 85 1011.4
20260905075550 82 185 1.0 2.0 0.00 0.00 0.00 86 1011.2
20260905075050 82 196 2.0 2.0 0.00 0.00 0.00 86 1011.4
20260905074549 82 202 2.0 2.0 0.00 0.00 0.00 86 1011.6
20260905074046 82 179 0.0 0.0 0.00 0.00 0.00 86 1011.5
20260905073541 82 169 0.0 0.0 0.00 0.00 0.00 86 1011.5
20260905073037 82 171 0.0 1.0 0.00 0.00 0.00 85 1011.7
20260905072536 82 163 0.0 1.0 0.00 0.00 0.00 85 1011.6
20260905072031 82 186 0.0 0.0 0.00 0.00 0.00 85 1011.9
20260905071528 82 177 1.0 1.0 0.00 0.00 0.00 85 1011.7
20260905071028 82 167 0.0 0.0 0.00 0.00 0.00 85 1011.7
20260905070523 82 141 0.0 0.0 0.00 0.00 0.00 85 1011.8
20260905070019 82 158 0.0 0.0 0.00 0.00 0.00 85 1011.9
20260905065516 82 157 0.0 0.0 0.00 0.00 0.00 85 1012.0
20260905065012 82 173 2.0 2.0 0.00 0.00 0.00 85 1011.8
20260905064508 82 167 1.0 1.0 0.00 0.00 0.00 84 1011.7
20260905064003 82 196 2.0 2.0 0.00 0.00 0.00 84 1012.0
20260905063502 82 145 1.0 2.0 0.00 0.00 0.00 84 1012.0
20260905062959 83 194 2.0 2.0 0.00 0.00 0.00 84 1012.1
20260905062458 82 156 2.0 3.0 0.00 0.00 0.00 84 1012.1
20260905061953 83 150 1.0 1.0 0.00 0.00 0.00 84 1012.1
20260905061448 83 137 2.0 3.0 0.00 0.00 0.00 84 1012.3
20260905060947 83 158 2.0 2.0 0.00 0.00 0.00 84 1012.0
20260905060443 83 160 4.0 4.0 0.00 0.00 0.00 84 1012.0
20260905055943 83 163 4.0 4.0 0.00 0.00 0.00 84 1012.1
20260905055443 83 170 4.0 4.0 0.00 0.00 0.00 84 1012.0
20260905054942 83 173 4.0 6.0 0.00 0.00 0.00 83 1012.2
20260905054438 83 167 4.0 4.0 0.00 0.00 0.00 83 1012.1
20260905053938 83 178 2.0 3.0 0.00 0.00 0.00 83 1012.1
20260905053433 83 184 2.0 2.0 0.00 0.00 0.00 83 1012.3
20260905052929 83 167 2.0 2.0 0.00 0.00 0.00 83 1012.2
20260905052428 83 158 2.0 2.0 0.00 0.00 0.00 82 1012.3
20260905051928 83 204 2.0 3.0 0.00 0.00 0.00 82 1012.4
20260905051424 83 171 2.0 2.0 0.00 0.00 0.00 82 1012.3
20260905050922 83 197 4.0 6.0 0.00 0.00 0.00 82 1012.2
20260905050417 83 176 2.0 3.0 0.00 0.00 0.00 82 1012.2
20260905045912 83 190 3.0 4.0 0.00 0.27 0.27 81 1012.1
20260905045407 83 168 2.0 3.0 0.00 0.27 0.27 81 1012.1
20260905044903 84 190 2.0 3.0 0.00 0.27 0.27 81 1012.2
20260905044358 84 177 4.0 4.0 0.00 0.27 0.27 81 1011.9
20260905043856 84 139 4.0 4.0 0.00 0.27 0.27 81 1012.2
20260905043351 84 159 4.0 4.0 0.00 0.27 0.27 81 1012.3
20260905042846 84 149 2.0 2.0 0.00 0.27 0.27 81 1012.1
20260905042346 84 179 4.0 6.0 0.00 0.27 0.27 80 1012.4
20260905041841 84 177 2.0 4.0 0.00 0.27 0.27 80 1012.4
20260905041338 84 143 5.0 6.0 0.00 0.27 0.27 80 1012.2
20260905040837 84 157 2.0 4.0 0.00 0.27 0.27 80 1012.5
20260905040337 84 152 4.0 6.0 0.00 0.27 0.27 80 1012.5
20260905035836 84 171 5.0 7.0 0.00 0.27 0.27 80 1012.3
20260905035332 84 167 2.0 2.0 0.00 0.27 0.27 79 1012.5
20260905034828 84 189 4.0 6.0 0.00 0.27 0.27 79 1012.5
20260905034323 84 153 1.0 2.0 0.00 0.27 0.27 79 1012.5
20260905033822 84 163 2.0 3.0 0.00 0.27 0.27 79 1012.6
20260905033317 85 169 2.0 3.0 0.00 0.27 0.27 79 1012.6
20260905032817 85 151 5.0 6.0 0.00 0.27 0.27 78 1012.3
20260905032312 85 159 2.0 4.0 0.00 0.27 0.27 78 1012.6
20260905031808 85 198 2.0 3.0 0.00 0.27 0.27 78 1012.4
20260905031303 85 188 2.0 3.0 0.00 0.27 0.27 78 1012.6
20260905030759 85 165 2.0 7.0 0.00 0.27 0.27 77 1012.7
20260905030254 85 173 6.0 8.0 0.00 0.27 0.27 77 1012.3
20260905025753 85 184 5.0 7.0 0.00 0.27 0.27 77 1012.4
20260905025249 86 154 7.0 10.0 0.00 0.27 0.27 76 1012.5
20260905024745 86 157 5.0 8.0 0.00 0.27 0.27 76 1012.4
20260905024241 86 195 7.0 9.0 0.00 0.27 0.27 75 1012.5
20260905023741 86 153 2.0 3.0 0.00 0.27 0.27 75 1012.5
20260905023236 86 180 4.0 6.0 0.00 0.27 0.27 75 1012.3
20260905022735 86 159 3.0 6.0 0.00 0.27 0.27 75 1012.3
20260905022231 86 119 2.0 4.0 0.00 0.27 0.27 75 1012.2
20260905021730 86 132 4.0 6.0 0.00 0.27 0.27 74 1012.1
20260905021225 86 151 4.0 8.0 0.00 0.27 0.27 74 1012.0
20260905020720 87 140 2.0 4.0 0.00 0.27 0.27 74 1012.1
20260905020216 87 166 1.0 4.0 0.00 0.27 0.27 74 1012.1
20260905015714 87 158 2.0 6.0 0.00 0.27 0.27 74 1011.9
20260905015215 87 161 4.0 4.0 0.00 0.27 0.27 73 1011.9
20260905014713 87 155 4.0 7.0 0.00 0.27 0.27 72 1011.7
20260905014209 88 131 3.0 8.0 0.00 0.27 0.27 71 1011.8
20260905013705 88 148 2.0 2.0 0.00 0.27 0.27 70 1011.6
20260905013200 88 145 5.0 6.0 0.00 0.27 0.27 70 1011.6
20260905012656 88 170 6.0 8.0 0.00 0.27 0.27 69 1011.4
20260905012152 88 161 2.0 4.0 0.00 0.27 0.27 69 1011.6
20260905011648 88 151 4.0 6.0 0.00 0.27 0.27 69 1011.4
20260905011144 88 145 5.0 6.0 0.00 0.27 0.27 69 1011.3
20260905010638 88 111 4.0 4.0 0.00 0.27 0.27 69 1011.4
20260905010134 89 154 6.0 9.0 0.00 0.27 0.27 68 1011.4
20260905005630 89 134 5.0 7.0 0.00 0.27 0.27 67 1011.4
20260905005125 89 145 3.0 7.0 0.00 0.27 0.27 67 1011.1
20260905004625 89 116 3.0 7.0 0.00 0.27 0.27 66 1011.5
20260905004120 89 138 3.0 6.0 0.00 0.27 0.27 65 1011.3
20260905003616 89 152 2.0 8.0 0.00 0.27 0.27 65 1011.3
20260905003112 89 185 1.0 2.0 0.00 0.27 0.27 64 1011.4
20260905002607 89 130 1.0 7.0 0.00 0.27 0.27 64 1011.2
20260905002102 90 135 6.0 9.0 0.00 0.27 0.27 63 1010.8
20260905001557 90 158 8.0 13.0 0.00 0.27 0.27 62 1010.9
20260905001056 90 153 8.0 13.0 0.00 0.27 0.27 62 1010.7
20260905000551 90 149 5.0 8.0 0.00 0.27 0.27 63 1010.7
20260905000048 90 175 9.0 13.0 0.00 0.27 0.27 62 1010.9
20260904235542 90 163 9.0 10.0 0.00 0.27 0.27 61 1010.8
20260904235042 91 155 10.0 11.0 0.00 0.27 0.27 60 1010.9
20260904234542 91 153 3.0 10.0 0.00 0.27 0.27 60 1010.8
20260904234038 91 147 6.0 8.0 0.00 0.27 0.27 60 1010.9
20260904233533 91 192 10.0 13.0 0.00 0.27 0.27 60 1010.7
20260904233029 92 194 4.0 13.0 0.00 0.27 0.27 60 1010.7
20260904232526 93 133 3.0 4.0 0.00 0.27 0.27 59 1010.8
20260904232022 93 143 3.0 7.0 0.00 0.27 0.27 59 1010.7
20260904231518 93 170 4.0 8.0 0.00 0.27 0.27 59 1010.8
20260904231012 92 168 7.0 10.0 0.00 0.27 0.27 59 1010.7
20260904230511 92 191 8.0 10.0 0.00 0.27 0.27 60 1010.7
20260904230007 92 179 4.0 7.0 0.00 0.27 0.27 60 1010.7
20260904225504 93 129 5.0 8.0 0.00 0.27 0.27 60 1010.7
20260904225004 94 180 3.0 8.0 0.00 0.27 0.27 57 1010.6
20260904224459 95 87 3.0 4.0 0.00 0.27 0.27 53 1010.6
20260904223959 97 169 4.0 6.0 0.00 0.27 0.27 51 1010.7
20260904223458 96 172 1.0 3.0 0.00 0.27 0.27 47 1010.6
20260904222954 97 99 1.0 2.0 0.00 0.27 0.27 46 1010.6
20260904222449 98 192 2.0 8.0 0.00 0.27 0.27 47 1010.7
20260904221944 97 153 2.0 3.0 0.00 0.27 0.27 45 1010.5
20260904221438 96 181 1.0 3.0 0.00 0.27 0.27 47 1010.7
20260904220934 96 54 3.0 6.0 0.00 0.27 0.27 48 1010.8
20260904220434 97 150 0.0 1.0 0.00 0.27 0.27 46 1010.9